START_TIME,STEP,MOV.,EG07,t_acc.,EG08,t_acc.,EG09,t_acc.,EB05,t_acc.,EBP05,t_acc.
1979-08-05 09:00:21.440 ,0,0,0.,1.2,0.,1.2,0.,1.2,,0.0,,0.0
1979-08-05 09:00:22.640 ,0,0,0.,1.2,0.,1.2,0.,1.2,,0.0,,0.0
1979-08-05 09:00:23.840 ,0,0,1.,1.2,1.,1.2,0.,1.2,,0.0,,0.0
1979-08-05 09:00:25.040 ,0,0,0.,1.2,0.,1.2,0.,1.2,,0.0,,0.0
1979-08-05 09:00:26.240 ,0,0,0.,1.2,0.,1.2,0.,1.2,,0.0,,0.0
1979-08-05 09:00:27.440 ,0,0,0.,1.2,0.,1.2,0.,1.2,,0.0,,0.0
1979-08-05 09:00:28.640 ,0,0,0.,1.2,0.,1.2,0.,1.2,,0.0,,0.0
1979-08-05 09:00:29.840 ,0,0,0.,1.2,0.,1.2,0.,1.2,,0.0,,0.0
1979-08-05 09:00:31.040 ,0,0,2.,1.2,0.,1.2,0.,1.2,,0.0,,0.0
1979-08-05 09:00:32.240 ,0,0,3.,1.2,1.,1.2,0.,1.2,,0.0,,0.0
1979-08-05 09:00:33.440 ,0,0,0.,1.2,0.,1.2,0.,1.2,,0.0,,0.0
1979-08-05 09:00:34.640 ,0,0,1.,1.2,0.,1.2,0.,1.2,,0.0,,0.0
1979-08-05 09:00:35.840 ,0,0,0.,1.2,0.,1.2,0.,1.2,,0.0,,0.0
1979-08-05 09:00:37.040 ,0,0,1.,1.2,0.,1.2,0.,1.2,,0.0,,0.0
1979-08-05 09:00:38.240 ,0,0,2.,1.2,0.,1.2,0.,1.2,,0.0,,0.0
1979-08-05 09:00:39.440 ,0,0,2.,1.2,0.,1.2,0.,1.2,,0.0,,0.0
1979-08-05 09:00:40.640 ,0,0,2.,1.2,0.,1.2,0.,1.2,,0.0,,0.0
1979-08-05 09:00:41.840 ,0,0,0.,1.2,0.,1.2,0.,1.2,,0.0,,0.0
1979-08-05 09:00:43.040 ,0,0,1.,1.2,0.,1.2,0.,1.2,,0.0,,0.0
1979-08-05 09:00:44.240 ,0,0,0.,1.2,0.,1.2,0.,1.2,,0.0,,0.0
1979-08-05 09:00:45.440 ,0,0,1.,1.2,0.,1.2,0.,1.2,,0.0,,0.0
1979-08-05 09:00:46.640 ,0,0,0.,1.2,0.,1.2,0.,1.2,,0.0,,0.0
1979-08-05 09:00:47.840 ,0,0,0.,1.2,0.,1.2,0.,1.2,,0.0,,0.0
1979-08-05 09:00:49.040 ,0,0,1.,1.2,0.,1.2,0.,1.2,,0.0,,0.0
1979-08-05 09:00:50.240 ,0,0,1.,1.2,0.,1.2,0.,1.2,,0.0,,0.0
1979-08-05 09:00:51.440 ,0,0,1.,1.2,1.,1.2,0.,1.2,,0.0,,0.0
1979-08-05 09:00:52.640 ,0,0,2.,1.2,1.,1.2,0.,1.2,,0.0,,0.0
1979-08-05 09:00:53.840 ,0,0,0.,1.2,0.,1.2,0.,1.2,,0.0,,0.0
1979-08-05 09:00:55.040 ,0,0,0.,1.2,0.,1.2,0.,1.2,,0.0,,0.0
1979-08-05 09:00:56.240 ,0,0,0.,1.2,0.,1.2,0.,1.2,,0.0,,0.0
1979-08-05 09:00:57.440 ,0,0,0.,1.2,0.,1.2,0.,1.2,,0.0,,0.0
1979-08-05 09:00:58.640 ,0,0,0.,1.2,0.,1.2,0.,1.2,,0.0,,0.0
1979-08-05 09:00:59.840 ,0,0,1.,1.2,0.,1.2,0.,1.2,,0.0,,0.0
1979-08-05 09:01:01.040 ,0,0,1.,1.2,0.,1.2,0.,1.2,,0.0,,0.0
1979-08-05 09:01:02.240 ,0,0,2.,1.2,0.,1.2,0.,1.2,,0.0,,0.0
1979-08-05 09:01:03.440 ,0,0,0.,1.2,0.,1.2,0.,1.2,,0.0,,0.0
1979-08-05 09:01:04.640 ,0,0,0.,1.2,0.,1.2,0.,1.2,,0.0,,0.0
1979-08-05 09:01:05.840 ,0,0,1.,1.2,0.,1.2,0.,1.2,,0.0,,0.0
1979-08-05 09:01:07.040 ,0,0,0.,1.2,0.,1.2,0.,1.2,,0.0,,0.0
1979-08-05 09:01:08.240 ,0,0,0.,1.2,0.,1.2,0.,1.2,,0.0,,0.0
1979-08-05 09:01:09.440 ,0,0,1.,1.2,0.,1.2,0.,1.2,,0.0,,0.0
1979-08-05 09:01:10.640 ,0,0,2.,1.2,0.,1.2,0.,1.2,,0.0,,0.0
1979-08-05 09:01:11.840 ,0,0,2.,1.2,1.,1.2,0.,1.2,,0.0,,0.0
1979-08-05 09:01:13.040 ,0,0,0.,1.2,0.,1.2,0.,1.2,,0.0,,0.0
1979-08-05 09:01:14.240 ,0,0,1.,1.2,0.,1.2,0.,1.2,,0.0,,0.0
1979-08-05 09:01:15.440 ,0,0,1.,1.2,1.,1.2,0.,1.2,,0.0,,0.0
1979-08-05 09:01:16.640 ,0,0,0.,1.2,0.,1.2,0.,1.2,,0.0,,0.0
1979-08-05 09:01:17.840 ,0,0,0.,1.2,0.,1.2,0.,1.2,,0.0,,0.0
1979-08-05 09:01:19.040 ,0,0,2.,1.2,0.,1.2,0.,1.2,,0.0,,0.0
1979-08-05 09:01:20.240 ,0,0,1.,1.2,0.,1.2,0.,1.2,,0.0,,0.0
1979-08-05 09:01:21.440 ,0,0,0.,1.2,0.,1.2,0.,1.2,,0.0,,0.0
1979-08-05 09:01:22.640 ,0,0,1.,1.2,0.,1.2,0.,1.2,,0.0,,0.0
1979-08-05 09:01:23.840 ,0,0,2.,1.2,0.,1.2,0.,1.2,,0.0,,0.0
1979-08-05 09:01:25.040 ,0,0,1.,1.2,0.,1.2,0.,1.2,,0.0,,0.0
1979-08-05 09:01:26.240 ,0,0,0.,1.2,0.,1.2,0.,1.2,,0.0,,0.0
1979-08-05 09:01:27.440 ,0,0,0.,1.2,0.,1.2,0.,1.2,,0.0,,0.0
1979-08-05 09:01:28.640 ,0,0,0.,1.2,0.,1.2,0.,1.2,,0.0,,0.0
1979-08-05 09:01:29.840 ,0,0,0.,1.2,0.,1.2,0.,1.2,,0.0,,0.0
1979-08-05 09:01:31.040 ,0,0,0.,1.2,0.,1.2,0.,1.2,,0.0,,0.0
1979-08-05 09:01:32.240 ,0,0,0.,1.2,0.,1.2,0.,1.2,,0.0,,0.0
1979-08-05 09:01:33.440 ,1,0,1.,1.2,0.,1.2,0.,1.2,,0.0,,0.0
1979-08-05 09:01:34.640 ,1,0,0.,1.2,0.,1.2,0.,1.2,,0.0,,0.0
1979-08-05 09:01:35.840 ,1,0,0.,1.2,0.,1.2,0.,1.2,,0.0,,0.0
1979-08-05 09:01:37.040 ,1,0,2.,1.2,0.,1.2,0.,1.2,,0.0,,0.0
1979-08-05 09:01:38.240 ,1,0,0.,1.2,0.,1.2,0.,1.2,,0.0,,0.0
1979-08-05 09:01:39.440 ,1,0,0.,1.2,0.,1.2,0.,1.2,,0.0,,0.0
1979-08-05 09:01:40.640 ,1,0,1.,1.2,0.,1.2,0.,1.2,,0.0,,0.0
1979-08-05 09:01:41.840 ,1,0,0.,1.2,0.,1.2,0.,1.2,,0.0,,0.0
1979-08-05 09:01:43.040 ,1,0,1.,1.2,0.,1.2,0.,1.2,,0.0,,0.0
1979-08-05 09:01:44.240 ,1,0,1.,1.2,0.,1.2,0.,1.2,,0.0,,0.0
1979-08-05 09:01:45.440 ,1,0,0.,1.2,0.,1.2,0.,1.2,,0.0,,0.0
1979-08-05 09:01:46.640 ,1,0,0.,1.2,0.,1.2,0.,1.2,,0.0,,0.0
1979-08-05 09:01:47.840 ,1,0,2.,1.2,0.,1.2,0.,1.2,,0.0,,0.0
1979-08-05 09:01:49.040 ,1,0,2.,1.2,1.,1.2,1.,1.2,,0.0,,0.0
1979-08-05 09:01:50.240 ,1,0,1.,1.2,0.,1.2,0.,1.2,,0.0,,0.0
1979-08-05 09:01:51.440 ,1,0,2.,1.2,0.,1.2,0.,1.2,,0.0,,0.0
1979-08-05 09:01:52.640 ,1,0,0.,1.2,0.,1.2,0.,1.2,,0.0,,0.0
1979-08-05 09:01:53.840 ,1,0,1.,1.2,1.,1.2,1.,1.2,,0.0,,0.0
1979-08-05 09:01:55.040 ,1,0,1.,1.2,0.,1.2,0.,1.2,,0.0,,0.0
1979-08-05 09:01:56.240 ,1,0,5.,1.2,1.,1.2,0.,1.2,,0.0,,0.0
1979-08-05 09:01:57.440 ,1,0,1.,1.2,0.,1.2,0.,1.2,,0.0,,0.0
1979-08-05 09:01:58.640 ,1,0,0.,1.2,0.,1.2,0.,1.2,,0.0,,0.0
1979-08-05 09:01:59.840 ,1,0,0.,1.2,0.,1.2,0.,1.2,,0.0,,0.0
1979-08-05 09:02:01.040 ,1,0,2.,1.2,0.,1.2,0.,1.2,,0.0,,0.0
1979-08-05 09:02:02.240 ,1,0,0.,1.2,0.,1.2,0.,1.2,,0.0,,0.0
1979-08-05 09:02:03.440 ,1,0,2.,1.2,0.,1.2,0.,1.2,,0.0,,0.0
1979-08-05 09:02:04.640 ,1,0,0.,1.2,0.,1.2,0.,1.2,,0.0,,0.0
1979-08-05 09:02:05.840 ,1,0,0.,1.2,0.,1.2,0.,1.2,,0.0,,0.0
1979-08-05 09:02:07.040 ,1,0,3.,1.2,0.,1.2,0.,1.2,,0.0,,0.0
1979-08-05 09:02:08.240 ,1,0,1.,1.2,0.,1.2,0.,1.2,,0.0,,0.0
1979-08-05 09:02:09.440 ,1,0,0.,1.2,0.,1.2,0.,1.2,,0.0,,0.0
1979-08-05 09:02:10.640 ,1,0,1.,1.2,0.,1.2,0.,1.2,,0.0,,0.0
1979-08-05 09:02:11.840 ,1,0,0.,1.2,0.,1.2,0.,1.2,,0.0,,0.0
1979-08-05 09:02:13.040 ,1,0,0.,1.2,0.,1.2,0.,1.2,,0.0,,0.0
1979-08-05 09:02:14.240 ,1,0,3.,1.2,1.,1.2,0.,1.2,,0.0,,0.0
1979-08-05 09:02:15.440 ,1,0,1.,1.2,0.,1.2,0.,1.2,,0.0,,0.0
1979-08-05 09:02:16.640 ,1,0,0.,1.2,0.,1.2,0.,1.2,,0.0,,0.0
1979-08-05 09:02:17.840 ,1,0,0.,1.2,0.,1.2,0.,1.2,,0.0,,0.0
1979-08-05 09:02:19.040 ,1,0,1.,1.2,0.,1.2,0.,1.2,,0.0,,0.0
1979-08-05 09:02:20.240 ,1,0,2.,1.2,2.,1.2,1.,1.2,,0.0,,0.0
1979-08-05 09:02:21.440 ,2,0,0.,1.2,0.,1.2,0.,1.2,,0.0,,0.0
1979-08-05 09:02:22.640 ,2,0,0.,1.2,0.,1.2,0.,1.2,,0.0,,0.0
1979-08-05 09:02:23.840 ,2,0,0.,1.2,0.,1.2,0.,1.2,,0.0,,0.0
1979-08-05 09:02:25.040 ,2,0,2.,1.2,1.,1.2,0.,1.2,,0.0,,0.0
1979-08-05 09:02:26.240 ,2,0,1.,1.2,0.,1.2,0.,1.2,,0.0,,0.0
1979-08-05 09:02:27.440 ,2,0,0.,1.2,0.,1.2,0.,1.2,,0.0,,0.0
1979-08-05 09:02:28.640 ,2,0,2.,1.2,1.,1.2,0.,1.2,,0.0,,0.0
1979-08-05 09:02:29.840 ,2,0,0.,1.2,0.,1.2,0.,1.2,,0.0,,0.0
1979-08-05 09:02:31.040 ,2,0,2.,1.2,1.,1.2,1.,1.2,,0.0,,0.0
1979-08-05 09:02:32.240 ,2,0,0.,1.2,0.,1.2,0.,1.2,,0.0,,0.0
1979-08-05 09:02:33.440 ,2,0,1.,1.2,0.,1.2,0.,1.2,,0.0,,0.0
1979-08-05 09:02:34.640 ,2,0,0.,1.2,0.,1.2,0.,1.2,,0.0,,0.0
1979-08-05 09:02:35.840 ,2,0,0.,1.2,0.,1.2,0.,1.2,,0.0,,0.0
1979-08-05 09:02:37.040 ,2,0,1.,1.2,1.,1.2,0.,1.2,,0.0,,0.0
1979-08-05 09:02:38.240 ,2,0,0.,1.2,0.,1.2,0.,1.2,,0.0,,0.0
1979-08-05 09:02:39.440 ,2,0,0.,1.2,0.,1.2,0.,1.2,,0.0,,0.0
1979-08-05 09:02:40.640 ,2,0,0.,1.2,0.,1.2,0.,1.2,,0.0,,0.0
1979-08-05 09:02:41.840 ,2,0,1.,1.2,0.,1.2,0.,1.2,,0.0,,0.0
1979-08-05 09:02:43.040 ,2,0,0.,1.2,0.,1.2,0.,1.2,,0.0,,0.0
1979-08-05 09:02:44.240 ,2,0,0.,1.2,0.,1.2,0.,1.2,,0.0,,0.0
1979-08-05 09:02:45.440 ,2,0,0.,1.2,0.,1.2,0.,1.2,,0.0,,0.0
1979-08-05 09:02:46.640 ,2,0,0.,1.2,0.,1.2,0.,1.2,,0.0,,0.0
1979-08-05 09:02:47.840 ,2,0,1.,1.2,0.,1.2,0.,1.2,,0.0,,0.0
1979-08-05 09:02:49.040 ,2,0,0.,1.2,0.,1.2,0.,1.2,,0.0,,0.0
1979-08-05 09:02:50.240 ,2,0,1.,1.2,0.,1.2,0.,1.2,,0.0,,0.0
1979-08-05 09:02:51.440 ,2,0,1.,1.2,0.,1.2,0.,1.2,,0.0,,0.0
1979-08-05 09:02:52.640 ,2,0,0.,1.2,0.,1.2,0.,1.2,,0.0,,0.0
1979-08-05 09:02:53.840 ,2,0,1.,1.2,0.,1.2,0.,1.2,,0.0,,0.0
1979-08-05 09:02:55.040 ,2,0,0.,1.2,0.,1.2,0.,1.2,,0.0,,0.0
1979-08-05 09:02:56.240 ,2,0,0.,1.2,0.,1.2,0.,1.2,,0.0,,0.0
1979-08-05 09:02:57.440 ,2,0,1.,1.2,0.,1.2,0.,1.2,,0.0,,0.0
1979-08-05 09:02:58.640 ,2,0,0.,1.2,0.,1.2,0.,1.2,,0.0,,0.0
1979-08-05 09:02:59.840 ,2,0,0.,1.2,0.,1.2,0.,1.2,,0.0,,0.0
1979-08-05 09:03:01.040 ,2,0,3.,1.2,1.,1.2,0.,1.2,,0.0,,0.0
1979-08-05 09:03:02.240 ,2,0,0.,1.2,0.,1.2,0.,1.2,,0.0,,0.0
1979-08-05 09:03:03.440 ,2,0,0.,1.2,0.,1.2,0.,1.2,,0.0,,0.0
1979-08-05 09:03:04.640 ,2,0,0.,1.2,0.,1.2,0.,1.2,,0.0,,0.0
1979-08-05 09:03:05.840 ,2,0,0.,1.2,0.,1.2,0.,1.2,,0.0,,0.0
1979-08-05 09:03:07.040 ,2,0,1.,1.2,1.,1.2,1.,1.2,,0.0,,0.0
1979-08-05 09:03:08.240 ,2,0,0.,1.2,0.,1.2,0.,1.2,,0.0,,0.0
1979-08-05 09:03:09.440 ,3,0,0.,1.2,0.,1.2,0.,1.2,,0.0,,0.0
1979-08-05 09:03:10.640 ,3,0,0.,1.2,0.,1.2,0.,1.2,,0.0,,0.0
1979-08-05 09:03:11.840 ,3,0,0.,1.2,0.,1.2,0.,1.2,,0.0,,0.0
1979-08-05 09:03:13.040 ,3,0,3.,1.2,0.,1.2,0.,1.2,,0.0,,0.0
1979-08-05 09:03:14.240 ,3,0,1.,1.2,0.,1.2,0.,1.2,,0.0,,0.0
1979-08-05 09:03:15.440 ,3,0,1.,1.2,1.,1.2,1.,1.2,,0.0,,0.0
1979-08-05 09:03:16.640 ,3,0,0.,1.2,0.,1.2,0.,1.2,,0.0,,0.0
1979-08-05 09:03:17.840 ,3,0,0.,1.2,0.,1.2,0.,1.2,,0.0,,0.0
1979-08-05 09:03:19.040 ,3,0,0.,1.2,0.,1.2,0.,1.2,,0.0,,0.0
1979-08-05 09:03:20.240 ,3,0,0.,1.2,0.,1.2,0.,1.2,,0.0,,0.0
1979-08-05 09:03:21.440 ,3,0,0.,1.2,0.,1.2,0.,1.2,,0.0,,0.0
1979-08-05 09:03:22.640 ,3,0,1.,1.2,0.,1.2,0.,1.2,,0.0,,0.0
1979-08-05 09:03:23.840 ,3,0,1.,1.2,0.,1.2,0.,1.2,,0.0,,0.0
1979-08-05 09:03:25.040 ,3,0,2.,1.2,1.,1.2,0.,1.2,,0.0,,0.0
1979-08-05 09:03:26.240 ,3,0,0.,1.2,0.,1.2,0.,1.2,,0.0,,0.0
1979-08-05 09:03:27.440 ,3,0,0.,1.2,0.,1.2,0.,1.2,,0.0,,0.0
1979-08-05 09:03:28.640 ,3,0,0.,1.2,0.,1.2,0.,1.2,,0.0,,0.0
1979-08-05 09:03:29.840 ,3,0,0.,1.2,0.,1.2,0.,1.2,,0.0,,0.0
1979-08-05 09:03:31.040 ,3,0,0.,1.2,0.,1.2,0.,1.2,,0.0,,0.0
1979-08-05 09:03:32.240 ,3,0,1.,1.2,1.,1.2,0.,1.2,,0.0,,0.0
1979-08-05 09:03:33.440 ,3,0,1.,1.2,1.,1.2,0.,1.2,,0.0,,0.0
1979-08-05 09:03:34.640 ,3,0,0.,1.2,0.,1.2,0.,1.2,,0.0,,0.0
1979-08-05 09:03:35.840 ,3,0,0.,1.2,0.,1.2,0.,1.2,,0.0,,0.0
1979-08-05 09:03:37.040 ,3,0,3.,1.2,0.,1.2,0.,1.2,,0.0,,0.0
1979-08-05 09:03:38.240 ,3,0,0.,1.2,0.,1.2,0.,1.2,,0.0,,0.0
1979-08-05 09:03:39.440 ,3,0,1.,1.2,1.,1.2,0.,1.2,,0.0,,0.0
1979-08-05 09:03:40.640 ,3,0,1.,1.2,1.,1.2,0.,1.2,,0.0,,0.0
1979-08-05 09:03:41.840 ,3,0,1.,1.2,0.,1.2,0.,1.2,,0.0,,0.0
1979-08-05 09:03:43.040 ,3,0,1.,1.2,0.,1.2,0.,1.2,,0.0,,0.0
1979-08-05 09:03:44.240 ,3,0,0.,1.2,0.,1.2,0.,1.2,,0.0,,0.0
1979-08-05 09:03:45.440 ,3,0,1.,1.2,0.,1.2,0.,1.2,,0.0,,0.0
1979-08-05 09:03:46.640 ,3,0,0.,1.2,0.,1.2,0.,1.2,,0.0,,0.0
1979-08-05 09:03:47.840 ,3,0,0.,1.2,0.,1.2,0.,1.2,,0.0,,0.0
1979-08-05 09:03:49.040 ,3,0,0.,1.2,0.,1.2,0.,1.2,,0.0,,0.0
1979-08-05 09:03:50.240 ,3,0,2.,1.2,0.,1.2,0.,1.2,,0.0,,0.0
1979-08-05 09:03:51.440 ,3,0,2.,1.2,0.,1.2,0.,1.2,,0.0,,0.0
1979-08-05 09:03:52.640 ,3,0,0.,1.2,0.,1.2,0.,1.2,,0.0,,0.0
1979-08-05 09:03:53.840 ,3,0,0.,1.2,0.,1.2,0.,1.2,,0.0,,0.0
1979-08-05 09:03:55.040 ,3,0,0.,1.2,0.,1.2,0.,1.2,,0.0,,0.0
1979-08-05 09:03:56.240 ,3,0,1.,1.2,0.,1.2,0.,1.2,,0.0,,0.0
1979-08-05 09:03:57.440 ,4,0,1.,1.2,0.,1.2,0.,1.2,,0.0,,0.0
1979-08-05 09:03:58.640 ,4,0,0.,1.2,0.,1.2,0.,1.2,,0.0,,0.0
1979-08-05 09:03:59.840 ,4,0,0.,1.2,0.,1.2,0.,1.2,,0.0,,0.0
1979-08-05 09:04:01.040 ,4,0,0.,1.2,0.,1.2,0.,1.2,,0.0,,0.0
1979-08-05 09:04:02.240 ,4,0,0.,1.2,0.,1.2,0.,1.2,,0.0,,0.0
1979-08-05 09:04:03.440 ,4,0,0.,1.2,0.,1.2,0.,1.2,,0.0,,0.0
1979-08-05 09:04:04.640 ,4,0,1.,1.2,0.,1.2,0.,1.2,,0.0,,0.0
1979-08-05 09:04:05.840 ,4,0,0.,1.2,0.,1.2,0.,1.2,,0.0,,0.0
1979-08-05 09:04:07.040 ,4,0,0.,1.2,0.,1.2,0.,1.2,,0.0,,0.0
1979-08-05 09:04:08.240 ,4,0,0.,1.2,0.,1.2,0.,1.2,,0.0,,0.0
1979-08-05 09:04:09.440 ,4,0,0.,1.2,0.,1.2,0.,1.2,,0.0,,0.0
1979-08-05 09:04:10.640 ,4,0,1.,1.2,1.,1.2,1.,1.2,,0.0,,0.0
1979-08-05 09:04:11.840 ,4,0,0.,1.2,0.,1.2,0.,1.2,,0.0,,0.0
1979-08-05 09:04:13.040 ,4,0,0.,1.2,0.,1.2,0.,1.2,,0.0,,0.0
1979-08-05 09:04:14.240 ,4,0,1.,1.2,1.,1.2,0.,1.2,,0.0,,0.0
1979-08-05 09:04:15.440 ,4,0,0.,1.2,0.,1.2,0.,1.2,,0.0,,0.0
1979-08-05 09:04:16.640 ,4,0,0.,1.2,0.,1.2,0.,1.2,,0.0,,0.0
1979-08-05 09:04:17.840 ,4,0,0.,1.2,0.,1.2,0.,1.2,,0.0,,0.0
1979-08-05 09:04:19.040 ,4,0,1.,1.2,0.,1.2,0.,1.2,,0.0,,0.0
1979-08-05 09:04:20.240 ,4,0,1.,1.2,0.,1.2,0.,1.2,,0.0,,0.0
1979-08-05 09:04:21.440 ,4,0,0.,1.2,0.,1.2,0.,1.2,,0.0,,0.0
1979-08-05 09:04:22.640 ,4,0,1.,1.2,0.,1.2,0.,1.2,,0.0,,0.0
1979-08-05 09:04:23.840 ,4,0,0.,1.2,0.,1.2,0.,1.2,,0.0,,0.0
1979-08-05 09:04:25.040 ,4,0,0.,1.2,0.,1.2,0.,1.2,,0.0,,0.0
1979-08-05 09:04:26.240 ,4,0,1.,1.2,0.,1.2,0.,1.2,,0.0,,0.0
1979-08-05 09:04:27.440 ,4,0,1.,1.2,1.,1.2,0.,1.2,,0.0,,0.0
1979-08-05 09:04:28.640 ,4,0,0.,1.2,0.,1.2,0.,1.2,,0.0,,0.0
1979-08-05 09:04:29.840 ,4,0,0.,1.2,0.,1.2,0.,1.2,,0.0,,0.0
1979-08-05 09:04:31.040 ,4,0,0.,1.2,0.,1.2,0.,1.2,,0.0,,0.0
1979-08-05 09:04:32.240 ,4,0,0.,1.2,0.,1.2,0.,1.2,,0.0,,0.0
1979-08-05 09:04:33.440 ,4,0,0.,1.2,0.,1.2,0.,1.2,,0.0,,0.0
1979-08-05 09:04:34.640 ,4,0,0.,1.2,0.,1.2,0.,1.2,,0.0,,0.0
1979-08-05 09:04:35.840 ,4,0,0.,1.2,0.,1.2,0.,1.2,,0.0,,0.0
1979-08-05 09:04:37.040 ,4,0,1.,1.2,0.,1.2,0.,1.2,,0.0,,0.0
1979-08-05 09:04:38.240 ,4,0,0.,1.2,0.,1.2,0.,1.2,,0.0,,0.0
1979-08-05 09:04:39.440 ,4,0,0.,1.2,0.,1.2,0.,1.2,,0.0,,0.0
1979-08-05 09:04:40.640 ,4,0,1.,1.2,1.,1.2,1.,1.2,,0.0,,0.0
1979-08-05 09:04:41.840 ,4,0,1.,1.2,0.,1.2,0.,1.2,,0.0,,0.0
1979-08-05 09:04:43.040 ,4,0,1.,1.2,0.,1.2,0.,1.2,,0.0,,0.0
1979-08-05 09:04:44.240 ,4,0,0.,1.2,0.,1.2,0.,1.2,,0.0,,0.0
1979-08-05 09:04:45.440 ,5,0,1.,1.2,0.,1.2,0.,1.2,,0.0,,0.0
1979-08-05 09:04:46.640 ,5,0,1.,1.2,0.,1.2,0.,1.2,,0.0,,0.0
1979-08-05 09:04:47.840 ,5,0,0.,1.2,0.,1.2,0.,1.2,,0.0,,0.0
1979-08-05 09:04:49.040 ,5,0,0.,1.2,0.,1.2,0.,1.2,,0.0,,0.0
1979-08-05 09:04:50.240 ,5,0,0.,1.2,0.,1.2,0.,1.2,,0.0,,0.0
1979-08-05 09:04:51.440 ,5,0,0.,1.2,0.,1.2,0.,1.2,,0.0,,0.0
1979-08-05 09:04:52.640 ,5,0,2.,1.2,0.,1.2,0.,1.2,,0.0,,0.0
1979-08-05 09:04:53.840 ,5,0,2.,1.2,1.,1.2,0.,1.2,,0.0,,0.0
1979-08-05 09:04:55.040 ,5,0,2.,1.2,0.,1.2,0.,1.2,,0.0,,0.0
1979-08-05 09:04:56.240 ,5,0,1.,1.2,0.,1.2,0.,1.2,,0.0,,0.0
1979-08-05 09:04:57.440 ,5,0,0.,1.2,0.,1.2,0.,1.2,,0.0,,0.0
1979-08-05 09:04:58.640 ,5,0,0.,1.2,0.,1.2,0.,1.2,,0.0,,0.0
1979-08-05 09:04:59.840 ,5,0,1.,1.2,1.,1.2,1.,1.2,,0.0,,0.0
1979-08-05 09:05:01.040 ,5,0,2.,1.2,0.,1.2,0.,1.2,,0.0,,0.0
1979-08-05 09:05:02.240 ,5,0,1.,1.2,1.,1.2,0.,1.2,,0.0,,0.0
1979-08-05 09:05:03.440 ,5,0,0.,1.2,0.,1.2,0.,1.2,,0.0,,0.0
1979-08-05 09:05:04.640 ,5,0,0.,1.2,0.,1.2,0.,1.2,,0.0,,0.0
1979-08-05 09:05:05.840 ,5,0,2.,1.2,0.,1.2,0.,1.2,,0.0,,0.0
1979-08-05 09:05:07.040 ,5,0,0.,1.2,0.,1.2,0.,1.2,,0.0,,0.0
1979-08-05 09:05:08.240 ,5,0,0.,1.2,0.,1.2,0.,1.2,,0.0,,0.0
1979-08-05 09:05:09.440 ,5,0,1.,1.2,0.,1.2,0.,1.2,,0.0,,0.0
1979-08-05 09:05:10.640 ,5,0,0.,1.2,0.,1.2,0.,1.2,,0.0,,0.0
1979-08-05 09:05:11.840 ,5,0,0.,1.2,0.,1.2,0.,1.2,,0.0,,0.0
1979-08-05 09:05:13.040 ,5,0,1.,1.2,0.,1.2,0.,1.2,,0.0,,0.0
1979-08-05 09:05:14.240 ,5,0,0.,1.2,0.,1.2,0.,1.2,,0.0,,0.0
1979-08-05 09:05:15.440 ,5,0,0.,1.2,0.,1.2,0.,1.2,,0.0,,0.0
1979-08-05 09:05:16.640 ,5,0,1.,1.2,0.,1.2,0.,1.2,,0.0,,0.0
1979-08-05 09:05:17.840 ,5,0,0.,1.2,0.,1.2,0.,1.2,,0.0,,0.0
1979-08-05 09:05:19.040 ,5,0,0.,1.2,0.,1.2,0.,1.2,,0.0,,0.0
1979-08-05 09:05:20.240 ,5,0,0.,1.2,0.,1.2,0.,1.2,,0.0,,0.0
1979-08-05 09:05:21.440 ,5,0,0.,1.2,0.,1.2,0.,1.2,,0.0,,0.0
1979-08-05 09:05:22.640 ,5,0,0.,1.2,0.,1.2,0.,1.2,,0.0,,0.0
1979-08-05 09:05:23.840 ,5,0,0.,1.2,0.,1.2,0.,1.2,,0.0,,0.0
1979-08-05 09:05:25.040 ,5,0,2.,1.2,0.,1.2,0.,1.2,,0.0,,0.0
1979-08-05 09:05:26.240 ,5,0,0.,1.2,0.,1.2,0.,1.2,,0.0,,0.0
1979-08-05 09:05:27.440 ,5,0,2.,1.2,0.,1.2,0.,1.2,,0.0,,0.0
1979-08-05 09:05:28.640 ,5,0,0.,1.2,0.,1.2,0.,1.2,,0.0,,0.0
1979-08-05 09:05:29.840 ,5,0,0.,1.2,0.,1.2,0.,1.2,,0.0,,0.0
1979-08-05 09:05:31.040 ,5,0,1.,1.2,0.,1.2,0.,1.2,,0.0,,0.0
1979-08-05 09:05:32.240 ,5,0,1.,1.2,1.,1.2,1.,1.2,,0.0,,0.0
1979-08-05 09:05:33.440 ,6,0,2.,1.2,1.,1.2,0.,1.2,,0.0,,0.0
1979-08-05 09:05:34.640 ,6,0,2.,1.2,0.,1.2,0.,1.2,,0.0,,0.0
1979-08-05 09:05:35.840 ,6,0,0.,1.2,0.,1.2,0.,1.2,,0.0,,0.0
1979-08-05 09:05:37.040 ,6,0,0.,1.2,0.,1.2,0.,1.2,,0.0,,0.0
1979-08-05 09:05:38.240 ,6,0,2.,1.2,0.,1.2,0.,1.2,,0.0,,0.0
1979-08-05 09:05:39.440 ,6,0,0.,1.2,0.,1.2,0.,1.2,,0.0,,0.0
1979-08-05 09:05:40.640 ,6,0,1.,1.2,1.,1.2,1.,1.2,,0.0,,0.0
1979-08-05 09:05:41.840 ,6,0,1.,1.2,1.,1.2,0.,1.2,,0.0,,0.0
1979-08-05 09:05:43.040 ,6,0,0.,1.2,0.,1.2,0.,1.2,,0.0,,0.0
1979-08-05 09:05:44.240 ,6,0,0.,1.2,0.,1.2,0.,1.2,,0.0,,0.0
1979-08-05 09:05:45.440 ,6,0,0.,1.2,0.,1.2,0.,1.2,,0.0,,0.0
1979-08-05 09:05:46.640 ,6,0,0.,1.2,0.,1.2,0.,1.2,,0.0,,0.0
1979-08-05 09:05:47.840 ,6,0,2.,1.2,0.,1.2,0.,1.2,,0.0,,0.0
1979-08-05 09:05:49.040 ,6,0,1.,1.2,0.,1.2,0.,1.2,,0.0,,0.0
1979-08-05 09:05:50.240 ,6,0,0.,1.2,0.,1.2,0.,1.2,,0.0,,0.0
1979-08-05 09:05:51.440 ,6,0,0.,1.2,0.,1.2,0.,1.2,,0.0,,0.0
1979-08-05 09:05:52.640 ,6,0,0.,1.2,0.,1.2,0.,1.2,,0.0,,0.0
1979-08-05 09:05:53.840 ,6,0,1.,1.2,0.,1.2,0.,1.2,,0.0,,0.0
1979-08-05 09:05:55.040 ,6,0,1.,1.2,0.,1.2,0.,1.2,,0.0,,0.0
1979-08-05 09:05:56.240 ,6,0,0.,1.2,0.,1.2,0.,1.2,,0.0,,0.0
1979-08-05 09:05:57.440 ,6,0,2.,1.2,1.,1.2,0.,1.2,,0.0,,0.0
1979-08-05 09:05:58.640 ,6,0,1.,1.2,0.,1.2,0.,1.2,,0.0,,0.0
1979-08-05 09:05:59.840 ,6,0,0.,1.2,0.,1.2,0.,1.2,,0.0,,0.0
1979-08-05 09:06:01.040 ,6,0,2.,1.2,1.,1.2,0.,1.2,,0.0,,0.0
1979-08-05 09:06:02.240 ,6,0,2.,1.2,0.,1.2,0.,1.2,,0.0,,0.0
1979-08-05 09:06:03.440 ,6,0,0.,1.2,0.,1.2,0.,1.2,,0.0,,0.0
1979-08-05 09:06:04.640 ,6,0,0.,1.2,0.,1.2,0.,1.2,,0.0,,0.0
1979-08-05 09:06:05.840 ,6,0,1.,1.2,1.,1.2,0.,1.2,,0.0,,0.0
1979-08-05 09:06:07.040 ,6,0,1.,1.2,0.,1.2,0.,1.2,,0.0,,0.0
1979-08-05 09:06:08.240 ,6,0,0.,1.2,0.,1.2,0.,1.2,,0.0,,0.0
1979-08-05 09:06:09.440 ,6,0,0.,1.2,0.,1.2,0.,1.2,,0.0,,0.0
1979-08-05 09:06:10.640 ,6,0,0.,1.2,0.,1.2,0.,1.2,,0.0,,0.0
1979-08-05 09:06:11.840 ,6,0,0.,1.2,0.,1.2,0.,1.2,,0.0,,0.0
1979-08-05 09:06:13.040 ,6,0,1.,1.2,0.,1.2,0.,1.2,,0.0,,0.0
1979-08-05 09:06:14.240 ,6,0,2.,1.2,1.,1.2,0.,1.2,,0.0,,0.0
1979-08-05 09:06:15.440 ,6,0,0.,1.2,0.,1.2,0.,1.2,,0.0,,0.0
1979-08-05 09:06:16.640 ,6,0,0.,1.2,0.,1.2,0.,1.2,,0.0,,0.0
1979-08-05 09:06:17.840 ,6,0,0.,1.2,0.,1.2,0.,1.2,,0.0,,0.0
1979-08-05 09:06:19.040 ,6,0,,0,,0,,0,,0,,0
1979-08-05 09:06:20.240 ,6,0,,0,,0,,0,,0,,0
1979-08-05 09:06:21.440 ,7,0,,0,,0,,0,,0,,0
1979-08-05 09:06:22.640 ,7,0,75776.,1.2,86016.,1.2,576.,1.2,,0.0,,0.0
1979-08-05 09:06:23.840 ,7,0,0.,1.2,0.,1.2,0.,1.2,,0.0,,0.0
1979-08-05 09:06:25.040 ,7,0,,0,,0,,0,,0,,0
1979-08-05 09:06:26.240 ,7,0,,0,,0,,0,,0,,0
1979-08-05 09:06:27.440 ,7,0,,0,,0,,0,,0,,0
1979-08-05 09:06:28.640 ,7,0,,0,,0,,0,,0,,0
1979-08-05 09:06:29.840 ,7,0,,0,,0,,0,,0,,0
1979-08-05 09:06:31.040 ,7,0,,0,,0,,0,,0,,0
1979-08-05 09:06:32.240 ,7,0,,0,,0,,0,,0,,0
1979-08-05 09:06:33.440 ,7,0,,0,,0,,0,,0,,0
1979-08-05 09:06:34.640 ,7,0,,0,,0,,0,,0,,0
1979-08-05 09:06:35.840 ,7,0,,0,,0,,0,,0,,0
1979-08-05 09:06:37.040 ,7,0,0.,1.2,0.,1.2,0.,1.2,,0.0,,0.0
1979-08-05 09:06:38.240 ,7,0,0.,1.2,0.,1.2,0.,1.2,,0.0,,0.0
1979-08-05 09:06:39.440 ,7,0,1.,1.2,1.,1.2,0.,1.2,,0.0,,0.0
1979-08-05 09:06:40.640 ,7,0,0.,1.2,0.,1.2,0.,1.2,,0.0,,0.0
1979-08-05 09:06:41.840 ,7,0,1.,1.2,0.,1.2,0.,1.2,,0.0,,0.0
1979-08-05 09:06:43.040 ,7,0,0.,1.2,0.,1.2,0.,1.2,,0.0,,0.0
1979-08-05 09:06:44.240 ,7,0,0.,1.2,0.,1.2,0.,1.2,,0.0,,0.0
1979-08-05 09:06:45.440 ,7,0,0.,1.2,0.,1.2,0.,1.2,,0.0,,0.0
1979-08-05 09:06:46.640 ,7,0,2.,1.2,0.,1.2,0.,1.2,,0.0,,0.0
1979-08-05 09:06:47.840 ,7,0,0.,1.2,0.,1.2,0.,1.2,,0.0,,0.0
1979-08-05 09:06:49.040 ,7,0,0.,1.2,0.,1.2,0.,1.2,,0.0,,0.0
1979-08-05 09:06:50.240 ,7,0,1.,1.2,0.,1.2,0.,1.2,,0.0,,0.0
1979-08-05 09:06:51.440 ,7,0,1.,1.2,0.,1.2,0.,1.2,,0.0,,0.0
1979-08-05 09:06:52.640 ,7,0,0.,1.2,0.,1.2,0.,1.2,,0.0,,0.0
1979-08-05 09:06:53.840 ,7,0,0.,1.2,0.,1.2,0.,1.2,,0.0,,0.0
1979-08-05 09:06:55.040 ,7,0,1.,1.2,0.,1.2,0.,1.2,,0.0,,0.0
1979-08-05 09:06:56.240 ,7,0,0.,1.2,0.,1.2,0.,1.2,,0.0,,0.0
1979-08-05 09:06:57.440 ,7,0,0.,1.2,0.,1.2,0.,1.2,,0.0,,0.0
1979-08-05 09:06:58.640 ,7,0,1.,1.2,1.,1.2,0.,1.2,,0.0,,0.0
1979-08-05 09:06:59.840 ,7,0,0.,1.2,0.,1.2,0.,1.2,,0.0,,0.0
1979-08-05 09:07:01.040 ,7,0,0.,1.2,0.,1.2,0.,1.2,,0.0,,0.0
1979-08-05 09:07:02.240 ,7,0,0.,1.2,0.,1.2,0.,1.2,,0.0,,0.0
1979-08-05 09:07:03.440 ,7,0,0.,1.2,0.,1.2,0.,1.2,,0.0,,0.0
1979-08-05 09:07:04.640 ,7,0,0.,1.2,0.,1.2,0.,1.2,,0.0,,0.0
1979-08-05 09:07:05.840 ,7,0,0.,1.2,0.,1.2,0.,1.2,,0.0,,0.0
1979-08-05 09:07:07.040 ,7,0,0.,1.2,0.,1.2,0.,1.2,,0.0,,0.0
1979-08-05 09:07:08.240 ,7,0,1.,1.2,0.,1.2,0.,1.2,,0.0,,0.0
1979-08-05 09:07:09.440 ,3,0,1.,1.2,0.,1.2,0.,1.2,,0.0,,0.0
1979-08-05 09:07:10.640 ,3,0,2.,1.2,0.,1.2,0.,1.2,,0.0,,0.0
1979-08-05 09:07:11.840 ,3,0,0.,1.2,0.,1.2,0.,1.2,,0.0,,0.0
1979-08-05 09:07:13.040 ,3,0,0.,1.2,0.,1.2,0.,1.2,,0.0,,0.0
1979-08-05 09:07:14.240 ,3,0,0.,1.2,0.,1.2,0.,1.2,,0.0,,0.0
1979-08-05 09:07:15.440 ,3,0,2.,1.2,1.,1.2,0.,1.2,,0.0,,0.0
1979-08-05 09:07:16.640 ,3,0,0.,1.2,0.,1.2,0.,1.2,,0.0,,0.0
1979-08-05 09:07:17.840 ,3,0,0.,1.2,0.,1.2,0.,1.2,,0.0,,0.0
1979-08-05 09:07:19.040 ,3,0,0.,1.2,0.,1.2,0.,1.2,,0.0,,0.0
1979-08-05 09:07:20.240 ,3,0,0.,1.2,0.,1.2,0.,1.2,,0.0,,0.0
1979-08-05 09:07:21.440 ,3,0,1.,1.2,0.,1.2,0.,1.2,,0.0,,0.0
1979-08-05 09:07:22.640 ,3,0,0.,1.2,0.,1.2,0.,1.2,,0.0,,0.0
1979-08-05 09:07:23.840 ,3,0,0.,1.2,0.,1.2,0.,1.2,,0.0,,0.0
1979-08-05 09:07:25.040 ,3,0,1.,1.2,0.,1.2,0.,1.2,,0.0,,0.0
1979-08-05 09:07:26.240 ,3,0,0.,1.2,0.,1.2,0.,1.2,,0.0,,0.0
1979-08-05 09:07:27.440 ,3,0,0.,1.2,0.,1.2,0.,1.2,,0.0,,0.0
1979-08-05 09:07:28.640 ,3,0,0.,1.2,0.,1.2,0.,1.2,,0.0,,0.0
1979-08-05 09:07:29.840 ,3,0,0.,1.2,0.,1.2,0.,1.2,,0.0,,0.0
1979-08-05 09:07:31.040 ,3,0,0.,1.2,0.,1.2,0.,1.2,,0.0,,0.0
1979-08-05 09:07:32.240 ,3,0,2.,1.2,0.,1.2,0.,1.2,,0.0,,0.0
1979-08-05 09:07:33.440 ,0,0,0.,1.2,0.,1.2,0.,1.2,,0.0,,0.0
1979-08-05 09:07:34.640 ,0,0,0.,1.2,0.,1.2,0.,1.2,,0.0,,0.0
1979-08-05 09:07:35.840 ,0,0,0.,1.2,0.,1.2,0.,1.2,,0.0,,0.0
1979-08-05 09:07:37.040 ,0,0,0.,1.2,0.,1.2,0.,1.2,,0.0,,0.0
1979-08-05 09:07:38.240 ,0,0,2.,1.2,0.,1.2,0.,1.2,,0.0,,0.0
1979-08-05 09:07:39.440 ,0,0,0.,1.2,0.,1.2,0.,1.2,,0.0,,0.0
1979-08-05 09:07:40.640 ,0,0,0.,1.2,0.,1.2,0.,1.2,,0.0,,0.0
1979-08-05 09:07:41.840 ,0,0,3.,1.2,1.,1.2,0.,1.2,,0.0,,0.0
1979-08-05 09:07:43.040 ,0,0,0.,1.2,0.,1.2,0.,1.2,,0.0,,0.0
1979-08-05 09:07:44.240 ,0,0,0.,1.2,0.,1.2,0.,1.2,,0.0,,0.0
1979-08-05 09:07:45.440 ,0,0,0.,1.2,0.,1.2,0.,1.2,,0.0,,0.0
1979-08-05 09:07:46.640 ,0,0,1.,1.2,0.,1.2,0.,1.2,,0.0,,0.0
1979-08-05 09:07:47.840 ,0,0,0.,1.2,0.,1.2,0.,1.2,,0.0,,0.0
1979-08-05 09:07:49.040 ,0,0,1.,1.2,0.,1.2,0.,1.2,,0.0,,0.0
1979-08-05 09:07:50.240 ,0,0,0.,1.2,0.,1.2,0.,1.2,,0.0,,0.0
1979-08-05 09:07:51.440 ,0,0,0.,1.2,0.,1.2,0.,1.2,,0.0,,0.0
1979-08-05 09:07:52.640 ,0,0,0.,1.2,0.,1.2,0.,1.2,,0.0,,0.0
1979-08-05 09:07:53.840 ,0,0,0.,1.2,0.,1.2,0.,1.2,,0.0,,0.0
1979-08-05 09:07:55.040 ,0,0,0.,1.2,0.,1.2,0.,1.2,,0.0,,0.0
1979-08-05 09:07:56.240 ,0,0,0.,1.2,0.,1.2,0.,1.2,,0.0,,0.0
1979-08-05 09:07:57.440 ,4,0,1.,1.2,1.,1.2,0.,1.2,,0.0,,0.0
1979-08-05 09:07:58.640 ,4,0,3.,1.2,1.,1.2,0.,1.2,,0.0,,0.0
1979-08-05 09:07:59.840 ,4,0,0.,1.2,0.,1.2,0.,1.2,,0.0,,0.0
1979-08-05 09:08:01.040 ,4,0,0.,1.2,0.,1.2,0.,1.2,,0.0,,0.0
1979-08-05 09:08:02.240 ,4,0,0.,1.2,0.,1.2,0.,1.2,,0.0,,0.0
1979-08-05 09:08:03.440 ,4,0,0.,1.2,0.,1.2,0.,1.2,,0.0,,0.0
1979-08-05 09:08:04.640 ,4,0,1.,1.2,0.,1.2,0.,1.2,,0.0,,0.0
1979-08-05 09:08:05.840 ,4,0,0.,1.2,0.,1.2,0.,1.2,,0.0,,0.0
1979-08-05 09:08:07.040 ,4,0,1.,1.2,0.,1.2,0.,1.2,,0.0,,0.0
1979-08-05 09:08:08.240 ,4,0,3.,1.2,1.,1.2,1.,1.2,,0.0,,0.0
1979-08-05 09:08:09.440 ,4,0,1.,1.2,0.,1.2,0.,1.2,,0.0,,0.0
1979-08-05 09:08:10.640 ,4,0,2.,1.2,0.,1.2,0.,1.2,,0.0,,0.0
1979-08-05 09:08:11.840 ,4,0,0.,1.2,0.,1.2,0.,1.2,,0.0,,0.0
1979-08-05 09:08:13.040 ,4,0,0.,1.2,0.,1.2,0.,1.2,,0.0,,0.0
1979-08-05 09:08:14.240 ,4,0,0.,1.2,0.,1.2,0.,1.2,,0.0,,0.0